Regional Weather Roundup
Issued by NWS San Angelo, TX

Home | Current Version | Previous Version | Text Only | Print | Product List | Glossary On
Versions: 1 2 3 4 5 6 7 8 9 10 11 12 13 14 15 16 17 18 19 20 21 22 23 24 25 26 27 28 29 30 31 32 33 34 35 36 37 38 39 40 41 42 43 44 45 46 47 48 49 50
000
ASUS44 KSJT 290002
RWRSJT
WEST CENTRAL TEXAS REGIONAL WEATHER ROUNDUP
NATIONAL WEATHER SERVICE SAN ANGELO TX
700 PM CDT WED SEP 28 2016

NOTE: "FAIR" INDICATES FEW OR NO CLOUDS BELOW 12,000 FEET WITH NO
SIGNIFICANT WEATHER AND/OR OBSTRUCTIONS TO VISIBILITY.

TXZ049-054-064>066-071>073-076>078-098-099-113-114-127-128-139-140-
154-155-168>170-290100
...LOCATIONS ACROSS WEST CENTRAL TEXAS...

CITY           SKY/WX    TMP DP  RH WIND       PRES   REMARKS
SAN ANGELO     CLEAR     80  56  43 E7        30.10R
ABILENE        CLEAR     81  48  31 E3        30.11S
DYESS AFB      CLEAR     81  54  39 CALM      30.09S
JUNCTION       CLEAR     84  59  42 NE3       30.09R
SWEETWATER     CLEAR     80  46  29 CALM      30.15S
BROWNWOOD      CLEAR     82  50  32 CALM      30.09R
COLEMAN        CLEAR     82  55  40 NE3       30.10S
SONORA         CLEAR     82  55  39 SE3       30.14S
OZONA          FAIR      82  54  36 CALM      30.13S
BRADY          NOT AVBL
$$

TEXAS PANHANDLE/OKLAHOMA PANHANDLE

CITY           SKY/WX    TMP DP  RH WIND       PRES   REMARKS
AMARILLO       CLEAR     80  38  22 E10       30.21R
BORGER         CLEAR     84  34  16 SE6       30.18R
CANADIAN       CLEAR     81  50  34 E8        30.16R
DALHART        CLEAR     81  33  17 E8        30.24R
DUMAS          CLEAR     82  32  16 SE8       30.22R
GUYMON         NOT AVBL
HEREFORD       CLEAR     78  40  26 E7        30.22R
PAMPA          NOT AVBL
PERRYTON       CLEAR     83  43  23 E10G16    30.18R
$$

SOUTHERN PANHANDLE/SOUTH PLAINS/ROLLING PLAINS

CITY           SKY/WX    TMP DP  RH WIND       PRES   REMARKS
LUBBOCK        MOCLDY    82  43  25 NE7       30.17R
SNYDER           N/A     82  50  32 S5        30.14R
CHILDRESS      CLEAR     84  46  26 E6        30.12R
SEMINOLE       CLEAR     78  46  31 CALM      30.19S
$$

PERMIAN BASIN

CITY           SKY/WX    TMP DP  RH WIND       PRES   REMARKS
MIDLAND        CLEAR     84  43  23 E5        30.14S
ODESSA         CLEAR     83  44  25 CALM      30.16S
WINK           CLEAR     84  54  35 CALM      30.12S
$$

FAR WEST/SOUTHWEST MOUNTAINS/TRANS PECOS

CITY           SKY/WX    TMP DP  RH WIND       PRES   REMARKS
ALPINE         CLEAR     75  60  59 NE7       30.28S
DRYDEN         NOT AVBL
EL PASO        PTSUNNY   83  50  31 E3        30.15R
FORT STOCKTON  CLEAR     80  59  48 E6        30.15S
GUADALUPE PASS NOT AVBL
MARFA          CLOUDY   N/A N/A N/A E9        30.25S
PECOS          NOT AVBL
$$

DALLAS/FORT WORTH METROPLEX

CITY           SKY/WX    TMP DP  RH WIND       PRES   REMARKS
DFW AIRPORT    PTCLDY    87  50  27 W6        30.02S
FTW MEACHAM    CLEAR     86  54  33 CALM      30.03R
DAL-EXECUTIVE  CLEAR     79  58  48 CALM      30.03R
GRAND PRAIRIE  CLEAR     86  46  25 CALM      30.05R
ADDISON        CLEAR     86  52  30 SW3       30.03S
MESQUITE       CLEAR     82  55  39 W3        30.03R
LANCASTER      CLEAR     86  47  26 CALM      30.04R
$$

NORTH CENTRAL TEXAS

CITY           SKY/WX    TMP DP  RH WIND       PRES   REMARKS
SHRMAN/DENISON NOT AVBL
GAINESVILLE      N/A     83  56  38 W3        30.05S
BRIDGEPORT     CLEAR     83  61  47 CALM      30.06S
DENTON         CLEAR     82  59  45 W5        30.02S
WAXAHACHIE     CLEAR     81  60  48 CALM      30.04S
GRANBURY       NOT AVBL
$$

WESTERN NORTH TEXAS

CITY           SKY/WX    TMP DP  RH WIND       PRES   REMARKS
WICHITA FALLS  CLEAR     81  60  48 N9        30.05R
VERNON         CLEAR     86  46  24 NE6       30.09R
BRECKENRIDGE   NOT AVBL
COMANCHE       CLEAR     82  54  38 CALM      30.08S
$$

CENTRAL AND SOUTH CENTRAL TEXAS

CITY           SKY/WX    TMP DP  RH WIND       PRES   REMARKS
AUSTIN/BERGSTM PTCLDY    82  54  37 NW5       30.03R
WACO           CLEAR     84  54  35 NE3       30.04R
HILLSBORO      CLEAR     81  54  39 CALM      30.04S
TEMPLE         CLEAR     81  55  40 N5        30.05R
KILLEEN-GRAY   CLEAR     82  52  35 CALM      30.05R
FORT HOOD      CLEAR     82  53  36 N5        30.03S
GEORGETOWN     CLEAR     86  50  28 NW3       30.04S
LAGO VISTA     FAIR      83  51  32 CALM      30.07S
SAN MARCOS     CLEAR     82  63  51 N6        30.05S
NEW BRAUNFELS  CLEAR     86  64  47 NE3       30.02S
RANDOLPH AFB   CLEAR     82  67  60 SE6       30.04R
SAN ANTONIO    PTCLDY    87  62  43 CALM      30.04R
STINSON        CLEAR     84  67  56 SE3       30.01S
PLEASANTON     NOT AVBL
LA GRANGE      NOT AVBL
GIDDINGS       CLEAR     82  58  44 CALM      30.07S
$$

EAST TEXAS

CITY           SKY/WX    TMP DP  RH WIND       PRES   REMARKS
PARIS          CLEAR     81  55  41 SW6       30.00R
CLARKSVILLE    NOT AVBL
TYLER          CLEAR     81  53  37 SW5       30.02S
LONGVIEW       CLEAR     79  56  45 SW6       30.01R
PALESTINE      CLEAR     80  55  42 CALM      30.04S
NACOGDOCHES    CLEAR     73  63  68 CALM      30.01S
$$

TEXAS HILL COUNTRY AND EDWARDS PLATEAU

CITY           SKY/WX    TMP DP  RH WIND       PRES   REMARKS
LLANO          NOT AVBL
HORSESHOE BAY  FAIR      84  51  31 CALM      30.06S
KERRVILLE      CLEAR     84  61  46 W3        30.08S
FREDERICKSBRG  CLEAR     81  57  43 N5        30.09R
ROCKSPRINGS    NOT AVBL
HONDO          CLEAR     85  65  51 SE6       30.04S
UVALDE         CLEAR     83  66  56 CALM      30.06S
DEL RIO        CLEAR     82  67  60 S6        30.04S
$$

SOUTHEAST TEXAS

CITY           SKY/WX    TMP DP  RH WIND       PRES   REMARKS
COLLEGE STN    CLEAR     82  60  47 NW5       30.03S
CALDWELL       NOT AVBL
CROCKETT       NOT AVBL
BRENHAM        CLEAR     85  59  42 CALM      30.03S
HUNTSVILLE     CLEAR     80  58  46 CALM      30.03S
CONROE         CLEAR     78  68  71 CALM      30.02R
HOUSTON BUSH   PTCLDY    83  61  47 NE6       30.01R
HOUSTON HOBBY  PTCLDY    86  61  42 N5        30.00R
PERLAND        LGT RAIN  86  68  54 SW3       30.02R
WHARTON        CLEAR     82  64  54 NE3       30.02R
$$

THE UPPER TEXAS COAST

CITY           SKY/WX    TMP DP  RH WIND       PRES   REMARKS
ORANGE         CLEAR     81  64  56 CALM      30.01S
PORT ARTHUR    CLEAR     81  67  62 NW5       29.99S
GALVESTON      CLEAR     81  68  64 SE7       30.01S
ANGLETON       CLEAR     82  73  74 CALM      30.01R
BAY CITY       CLEAR     84  72  66 CALM      30.02R
$$

TEXAS COASTAL BEND, RIO GRANDE PLAINS DEEP SOUTH TEXAS

CITY           SKY/WX    TMP DP  RH WIND       PRES   REMARKS
VICTORIA       CLEAR     83  68  60 E5        30.02R
BEEVILLE       FAIR      84  70  62 CALM      30.02S
ROCKPORT       CLEAR     83  70  64 SE6       30.00S
PORT ARANSAS   CLEAR     84  69  61 E6        30.01S
PORT LAVACA    CLEAR     84  70  61 CALM      30.01S
CORPUS CHRISTI PTCLDY    85  69  58 E9        30.00S
KINGSVILLE NAS MOCLDY    86  71  60 N5        30.00S
COTULLA        CLEAR     88  66  48 CALM      30.02F
LAREDO         CLEAR     86  68  54 NE5       30.02F
BROWNSVILLE    CLEAR     82  73  74 NE12      30.00R
PORT ISABEL    CLOUDY    82  75  79 N12       29.99S
HEBBRONVILLE   PTCLDY    85  65  51 NE5       30.04S
MCALLEN        CLEAR     88  68  51 E8        30.00R
WESLACO        CLEAR     83  71  66 NE7       29.99S
FALFURRIAS     CLEAR     86  66  50 N5        30.00S
EDINBURG       CLOUDY    86  67  53 NE7       30.00S
$$




USA.gov is the U.S. government's official web portal to all federal, state and local government web resources and services.